Salt Lake City, UT

2:38 PM MDT on August 20, 2017 (GMT -0600)
Salt Lake City International

Weather History for KSLC - October, 2010

Change the Weather History Date:

Monday, October 18, 2010

  Actual Average Record
Temperature  
Mean Temperature 60 °F 52 °F  
Max Temperature 70 °F 64 °F 84 °F (1958)
Min Temperature 50 °F 41 °F 23 °F (1964)
Degree Days  
Heating Degree Days 5 13  
Month to date heating degree days 93 177  
Since 1 July heating degree days 127 266  
Cooling Degree Days 0 0  
Month to date cooling degree days 21 5  
Year to date cooling degree days 1142 1158  
Growing Degree Days 11 (Base 50)    
Moisture  
Dew Point 44 °F    
Average Humidity 53    
Maximum Humidity 77    
Minimum Humidity 28    
Precipitation  
Precipitation 0.00 in 0.05 in 1.23 in (1984)
Month to date precipitation 0.14 0.86  
Year to date precipitation 11.09 12.58  
Snow  
Snow 0.00 in 0.10 in 13.80 in (1984)
Month to date snowfall 0.0 0.5  
Since 1 July snowfall 0.0 0.5  
Snow Depth 0.00 in    
Sea Level Pressure  
Sea Level Pressure 29.99 in    
Wind  
Wind Speed 5 mph (NW)    
Max Wind Speed 15 mph    
Max Gust Speed 21 mph    
Visibility 10 miles    
Events      
T = Trace of Precipitation, MM = Missing Value Source: NWS Daily Summary

Daily Weather History Graph

Daily Weather History Graph

Search for Another Location

Airport or City:

Trip Planner

Search our weather history database for the weather conditions in past years. The results will help you decide how hot, cold, wet, or windy it might be!

Date:

Astronomy

Oct. 18, 2010 Rise Set
Actual Time 7:42 AM MDT 6:42 PM MDT
Civil Twilight 7:14 AM MDT 7:10 PM MDT
Nautical Twilight 6:42 AM MDT 7:42 PM MDT
Astronomical Twilight 6:11 AM MDT 8:14 PM MDT
Moon 4:30 PM MDT (10/18) 3:33 AM MDT (10/18)
Length of Visible Light 11h 55m
Length of Day
11h 00m
Waxing Gibbous, 84% of the Moon is Illuminated
Oct 18
Waxing Gibbous
Oct 22
Full
Oct 30
Last Quarter
Nov 5
New
Nov 13
First Quarter

Hourly Weather History & Observations

Time (MDT) Temp. Dew Point Humidity Pressure Visibility Wind Dir Wind Speed Gust Speed Precip Events Conditions
12:53 AM 57.0 °F 46.9 °F 69% 29.97 in 10.0 mi SE 6.9 mph - N/A   Overcast
1:53 AM 57.0 °F 46.0 °F 67% 29.96 in 10.0 mi ESE 5.8 mph - N/A   Overcast
2:53 AM 55.9 °F 45.0 °F 67% 29.96 in 10.0 mi Calm Calm - N/A   Overcast
3:53 AM 55.0 °F 46.0 °F 72% 29.96 in 10.0 mi WNW 3.5 mph - N/A   Overcast
4:53 AM 54.0 °F 46.9 °F 77% 29.96 in 10.0 mi NNW 3.5 mph - N/A   Overcast
5:53 AM 54.0 °F 46.9 °F 77% 29.98 in 10.0 mi Calm Calm - N/A   Overcast
6:53 AM 54.0 °F 46.9 °F 77% 29.99 in 10.0 mi Calm Calm - N/A   Mostly Cloudy
7:53 AM 55.0 °F 46.9 °F 74% 30.01 in 10.0 mi Calm Calm - N/A   Mostly Cloudy
8:53 AM 55.9 °F 46.9 °F 72% 30.03 in 10.0 mi Calm Calm - N/A   Mostly Cloudy
9:53 AM 57.2 °F 46.4 °F 67% 30.11 in 10.0 mi Calm Calm - N/A   Mostly Cloudy
10:53 AM 61.0 °F 46.0 °F 58% 30.01 in 10.0 mi NW 3.5 mph - N/A   Scattered Clouds
11:53 AM 64.0 °F 45.0 °F 50% 30.01 in 10.0 mi North 9.2 mph - N/A   Scattered Clouds
12:53 PM 66.0 °F 45.0 °F 47% 30.00 in 10.0 mi NW 10.4 mph - N/A   Scattered Clouds
1:53 PM 68.0 °F 41.0 °F 37% 29.97 in 10.0 mi NNW 9.2 mph - N/A   Scattered Clouds
2:53 PM 69.1 °F 34.0 °F 27% 29.96 in 10.0 mi NNW 8.1 mph - N/A   Scattered Clouds
3:53 PM 69.1 °F 37.0 °F 31% 29.95 in 10.0 mi NW 10.4 mph - N/A   Scattered Clouds
4:53 PM 66.9 °F 42.1 °F 40% 29.95 in 10.0 mi WNW 12.7 mph - N/A   Scattered Clouds
5:53 PM 64.0 °F 42.1 °F 45% 29.96 in 10.0 mi West 9.2 mph - N/A   Partly Cloudy
6:53 PM 60.1 °F 43.0 °F 53% 29.98 in 10.0 mi West 8.1 mph - N/A   Scattered Clouds
7:53 PM 60.1 °F 44.1 °F 55% 29.99 in 10.0 mi Calm Calm - N/A   Scattered Clouds
8:53 PM 57.9 °F 41.0 °F 53% 30.01 in 10.0 mi ESE 3.5 mph - N/A   Partly Cloudy
9:53 PM 53.1 °F 41.0 °F 64% 30.03 in 10.0 mi ESE 4.6 mph - N/A   Partly Cloudy
10:53 PM 54.0 °F 41.0 °F 62% 30.03 in 10.0 mi South 4.6 mph - N/A   Partly Cloudy
11:53 PM 51.1 °F 37.9 °F 61% 30.03 in 10.0 mi SSE 5.8 mph - N/A   Partly Cloudy